Location: Newark
(30.0333°N, 31.2167°E)
Time: 02:03:33
(UTC+00:00)

Tiros 1 - Pass Details

Date: 24 January 2020
Orbit: 631 x 664 km, 48.4° (Epoch: 25 February)

Event Time Altitude Azimuth Distance (km) Brightness Sun altitude
Rises 12:16:07 0° 287° (WNW) 2,941 10.8 31.7°
Reaches altitude 10° 12:19:58 10° 319° (NW) 2,042 9.7 31.2°
Maximum altitude 12:21:47 12° 342° (NNW) 1,915 9.4 31.0°
Drops below altitude 10° 12:23:36 10° 5° (N) 2,052 9.4 30.8°
Sets 12:27:30 0° 36° (NE) 2,973 10.0 30.2°
